| time (UTC) | temp C | wind direction | speed KPH | gust KPH | rain 1hr cm | rain 24hr cm | rain mn cm | humidity % | barometer mb |
| 20260904074038 | 22 | 155 | 9.7 | 19.3 | 0.00 | 0.00 | 0.00 | 13 | 1016.1 |
| 20260904073532 | 22 | 222 | 9.7 | 22.5 | 0.00 | 0.00 | 0.00 | 13 | 1016.1 |
| 20260904073026 | 22 | 157 | 9.7 | 22.5 | 0.00 | 0.00 | 0.00 | 13 | 1016.0 |
| 20260904072521 | 22 | 115 | 8.0 | 22.5 | 0.00 | 0.00 | 0.00 | 14 | 1016.0 |
| 20260904072016 | 22 | 165 | 8.0 | 25.7 | 0.00 | 0.00 | 0.00 | 14 | 1015.9 |
| 20260904071515 | 22 | 195 | 6.4 | 25.7 | 0.00 | 0.00 | 0.00 | 15 | 1016.0 |
| 20260904071013 | 22 | 188 | 6.4 | 17.7 | 0.00 | 0.00 | 0.00 | 15 | 1015.9 |
| 20260904070514 | 22 | 212 | 8.0 | 17.7 | 0.00 | 0.00 | 0.00 | 16 | 1015.9 |
| 20260904070014 | 22 | 205 | 8.0 | 22.5 | 0.00 | 0.00 | 0.00 | 16 | 1015.9 |
| 20260904065509 | 22 | 153 | 6.4 | 22.5 | 0.00 | 0.00 | 0.00 | 17 | 1016.0 |
| 20260904065010 | 22 | 204 | 4.8 | 19.3 | 0.00 | 0.00 | 0.00 | 17 | 1015.9 |
| 20260904064509 | 22 | 91 | 6.4 | 17.7 | 0.00 | 0.00 | 0.00 | 18 | 1015.9 |
| 20260904063509 | 22 | 115 | 6.4 | 16.1 | 0.00 | 0.00 | 0.00 | 18 | 1015.9 |
| 20260904062509 | 22 | 98 | 6.4 | 17.7 | 0.00 | 0.00 | 0.00 | 19 | 1015.9 |
| 20260904062011 | 22 | 105 | 6.4 | 25.7 | 0.00 | 0.00 | 0.00 | 19 | 1015.8 |
| 20260904061509 | 22 | 89 | 8.0 | 25.7 | 0.00 | 0.00 | 0.00 | 19 | 1015.8 |
| 20260904061009 | 22 | 123 | 6.4 | 20.9 | 0.00 | 0.00 | 0.00 | 19 | 1015.7 |
| 20260904060509 | 22 | 145 | 6.4 | 20.9 | 0.00 | 0.00 | 0.00 | 20 | 1015.7 |
| 20260904060013 | 22 | 105 | 4.8 | 19.3 | 0.00 | 0.00 | 0.00 | 21 | 1015.7 |
| 20260904055507 | 22 | 136 | 4.8 | 14.5 | 0.00 | 0.00 | 0.00 | 23 | 1015.7 |
| 20260904055001 | 22 | 104 | 4.8 | 16.1 | 0.00 | 0.00 | 0.00 | 23 | 1015.7 |
| 20260904054455 | 22 | 172 | 3.2 | 16.1 | 0.00 | 0.00 | 0.00 | 24 | 1015.7 |
| 20260904053949 | 23 | 214 | 4.8 | 9.7 | 0.00 | 0.00 | 0.00 | 25 | 1015.7 |
| 20260904053444 | 23 | 210 | 6.4 | 16.1 | 0.00 | 0.00 | 0.00 | 26 | 1015.8 |
| 20260904051419 | 23 | 166 | 4.8 | 14.5 | 0.00 | 0.00 | 0.00 | 27 | 1015.8 |
| 20260904050913 | 23 | 205 | 4.8 | 14.5 | 0.00 | 0.00 | 0.00 | 27 | 1015.7 |
| 20260904050407 | 23 | 227 | 4.8 | 19.3 | 0.00 | 0.00 | 0.00 | 26 | 1015.8 |
| 20260904045355 | 23 | 203 | 3.2 | 14.5 | 0.00 | 0.00 | 0.00 | 26 | 1015.9 |
| 20260904044849 | 23 | 187 | 4.8 | 11.3 | 0.00 | 0.00 | 0.00 | 26 | 1015.9 |
| 20260904044345 | 23 | 152 | 3.2 | 14.5 | 0.00 | 0.00 | 0.00 | 26 | 1015.9 |
| 20260904043331 | 24 | 231 | 6.4 | 14.5 | 0.00 | 0.00 | 0.00 | 26 | 1015.9 |
| 20260904041307 | 24 | 165 | 6.4 | 22.5 | 0.00 | 0.00 | 0.00 | 30 | 1015.8 |
| 20260904040801 | 24 | 191 | 8.0 | 22.5 | 0.00 | 0.00 | 0.00 | 30 | 1015.8 |
| 20260904040255 | 24 | 174 | 6.4 | 17.7 | 0.00 | 0.00 | 0.00 | 29 | 1015.8 |
| 20260904035750 | 24 | 146 | 4.8 | 17.7 | 0.00 | 0.00 | 0.00 | 28 | 1015.8 |
| 20260904034227 | 24 | 162 | 6.4 | 17.7 | 0.00 | 0.00 | 0.00 | 26 | 1015.6 |
| 20260904033721 | 24 | 239 | 4.8 | 17.7 | 0.00 | 0.00 | 0.00 | 25 | 1015.6 |
| 20260904033218 | 24 | 197 | 4.8 | 17.7 | 0.00 | 0.00 | 0.00 | 25 | 1015.6 |
| 20260904032218 | 24 | 266 | 4.8 | 17.7 | 0.00 | 0.00 | 0.00 | 24 | 1015.4 |
| 20260904031717 | 24 | 204 | 4.8 | 12.9 | 0.00 | 0.00 | 0.00 | 23 | 1015.3 |
| 20260904031219 | 25 | 207 | 4.8 | 12.9 | 0.00 | 0.00 | 0.00 | 23 | 1015.3 |
| 20260904030716 | 25 | 143 | 4.8 | 12.9 | 0.00 | 0.00 | 0.00 | 23 | 1015.3 |
| 20260904030218 | 25 | 224 | 6.4 | 14.5 | 0.00 | 0.00 | 0.00 | 22 | 1015.3 |
| 20260904025717 | 25 | 160 | 3.2 | 14.5 | 0.00 | 0.00 | 0.00 | 22 | 1015.3 |
| 20260904025219 | 25 | 232 | 3.2 | 9.7 | 0.00 | 0.00 | 0.00 | 22 | 1015.3 |
| 20260904024215 | 25 | 206 | 4.8 | 12.9 | 0.00 | 0.00 | 0.00 | 21 | 1015.2 |
| 20260904023714 | 25 | 179 | 6.4 | 25.7 | 0.00 | 0.00 | 0.00 | 21 | 1015.2 |
| 20260904023213 | 25 | 193 | 6.4 | 25.7 | 0.00 | 0.00 | 0.00 | 20 | 1015.2 |
| 20260904022713 | 25 | 195 | 4.8 | 14.5 | 0.00 | 0.00 | 0.00 | 20 | 1015.2 |
| 20260904021714 | 25 | 209 | 6.4 | 16.1 | 0.00 | 0.00 | 0.00 | 19 | 1015.1 |
| 20260904021214 | 25 | 173 | 6.4 | 25.7 | 0.00 | 0.00 | 0.00 | 18 | 1015.1 |
| 20260904020708 | 25 | 146 | 6.4 | 25.7 | 0.00 | 0.00 | 0.00 | 18 | 1015.1 |
| 20260904020202 | 25 | 210 | 6.4 | 19.3 | 0.00 | 0.00 | 0.00 | 18 | 1015.2 |
| 20260904015702 | 26 | 174 | 6.4 | 19.3 | 0.00 | 0.00 | 0.00 | 18 | 1015.2 |
| 20260904014202 | 26 | 205 | 4.8 | 12.9 | 0.00 | 0.00 | 0.00 | 16 | 1015.2 |
| 20260904013702 | 26 | 180 | 9.7 | 29.0 | 0.00 | 0.00 | 0.00 | 16 | 1015.4 |
| 20260904012701 | 27 | 203 | 11.3 | 32.2 | 0.00 | 0.00 | 0.00 | 14 | 1015.2 |
| 20260904012158 | 27 | 145 | 8.0 | 24.1 | 0.00 | 0.00 | 0.00 | 14 | 1015.3 |
| 20260904011700 | 28 | 126 | 4.8 | 19.3 | 0.00 | 0.00 | 0.00 | 15 | 1015.2 |
| 20260904010658 | 28 | 217 | 6.4 | 19.3 | 0.00 | 0.00 | 0.00 | 14 | 1015.3 |
| 20260904010159 | 28 | 215 | 8.0 | 16.1 | 0.00 | 0.00 | 0.00 | 14 | 1015.3 |
| 20260904005656 | 28 | 268 | 8.0 | 25.7 | 0.00 | 0.00 | 0.00 | 14 | 1015.3 |
| 20260904005158 | 28 | 237 | 6.4 | 25.7 | 0.00 | 0.00 | 0.00 | 13 | 1015.2 |
| 20260904004655 | 28 | 240 | 6.4 | 22.5 | 0.00 | 0.00 | 0.00 | 14 | 1015.2 |
| 20260904004159 | 28 | 229 | 8.0 | 22.5 | 0.00 | 0.00 | 0.00 | 14 | 1015.3 |
| 20260904003656 | 29 | 200 | 9.7 | 20.9 | 0.00 | 0.00 | 0.00 | 14 | 1015.3 |
| 20260904003155 | 29 | 164 | 8.0 | 20.9 | 0.00 | 0.00 | 0.00 | 13 | 1015.2 |
| 20260904002656 | 29 | 218 | 8.0 | 19.3 | 0.00 | 0.00 | 0.00 | 14 | 1015.3 |
| 20260904002156 | 29 | 224 | 8.0 | 25.7 | 0.00 | 0.00 | 0.00 | 14 | 1015.2 |
| 20260904001655 | 29 | 200 | 8.0 | 25.7 | 0.00 | 0.00 | 0.00 | 13 | 1015.2 |
| 20260904001157 | 29 | 268 | 9.7 | 22.5 | 0.00 | 0.00 | 0.00 | 13 | 1015.2 |
| 20260904000151 | 29 | 192 | 9.7 | 27.4 | 0.00 | 0.00 | 0.00 | 14 | 1015.2 |
| 20260903235651 | 30 | 106 | 8.0 | 24.1 | 0.00 | 0.00 | 0.00 | 13 | 1015.2 |
| 20260903234650 | 30 | 155 | 8.0 | 19.3 | 0.00 | 0.00 | 0.00 | 14 | 1015.3 |
| 20260903234150 | 30 | 220 | 8.0 | 19.3 | 0.00 | 0.00 | 0.00 | 15 | 1015.4 |
| 20260903233652 | 30 | 179 | 6.4 | 19.3 | 0.00 | 0.00 | 0.00 | 15 | 1015.4 |
| 20260903233151 | 30 | 230 | 6.4 | 19.3 | 0.00 | 0.00 | 0.00 | 14 | 1015.3 |
| 20260903232652 | 30 | 76 | 9.7 | 27.4 | 0.00 | 0.00 | 0.00 | 13 | 1015.6 |
| 20260903232152 | 30 | 177 | 9.7 | 27.4 | 0.00 | 0.00 | 0.00 | 12 | 1015.7 |
| 20260903231652 | 30 | 219 | 9.7 | 27.4 | 0.00 | 0.00 | 0.00 | 14 | 1015.7 |
| 20260903231151 | 30 | 233 | 9.7 | 27.4 | 0.00 | 0.00 | 0.00 | 14 | 1015.7 |
| 20260903230650 | 30 | 117 | 11.3 | 22.5 | 0.00 | 0.00 | 0.00 | 13 | 1015.7 |
| 20260903230149 | 30 | 209 | 9.7 | 24.1 | 0.00 | 0.00 | 0.00 | 13 | 1015.7 |
| 20260903225650 | 30 | 180 | 9.7 | 24.1 | 0.00 | 0.00 | 0.00 | 13 | 1015.6 |
| 20260903225148 | 29 | 160 | 11.3 | 24.1 | 0.00 | 0.00 | 0.00 | 11 | 1015.8 |
| 20260903224648 | 30 | 141 | 11.3 | 24.1 | 0.00 | 0.00 | 0.00 | 10 | 1015.8 |
| 20260903224149 | 30 | 173 | 11.3 | 24.1 | 0.00 | 0.00 | 0.00 | 10 | 1015.9 |
| 20260903223650 | 30 | 135 | 9.7 | 22.5 | 0.00 | 0.00 | 0.00 | 9 | 1016.0 |
| 20260903222646 | 30 | 172 | 9.7 | 22.5 | 0.00 | 0.00 | 0.00 | 9 | 1016.1 |
| 20260903222146 | 30 | 82 | 8.0 | 25.7 | 0.00 | 0.00 | 0.00 | 9 | 1016.1 |
| 20260903221648 | 30 | 274 | 9.7 | 27.4 | 0.00 | 0.00 | 0.00 | 9 | 1016.2 |
| 20260903221144 | 30 | 203 | 11.3 | 30.6 | 0.00 | 0.00 | 0.00 | 9 | 1016.2 |
| 20260903220643 | 30 | 138 | 11.3 | 30.6 | 0.00 | 0.00 | 0.00 | 9 | 1016.2 |
| 20260903220142 | 30 | 147 | 11.3 | 29.0 | 0.00 | 0.00 | 0.00 | 9 | 1016.1 |
| 20260903215142 | 30 | 198 | 9.7 | 29.0 | 0.00 | 0.00 | 0.00 | 9 | 1016.2 |
| 20260903214640 | 30 | 134 | 11.3 | 24.1 | 0.00 | 0.00 | 0.00 | 9 | 1016.1 |
| 20260903214139 | 30 | 251 | 11.3 | 30.6 | 0.00 | 0.00 | 0.00 | 9 | 1016.4 |
| 20260903213636 | 30 | 158 | 11.3 | 30.6 | 0.00 | 0.00 | 0.00 | 9 | 1016.2 |
| 20260903213138 | 30 | 200 | 12.9 | 30.6 | 0.00 | 0.00 | 0.00 | 9 | 1016.4 |
| 20260903212636 | 30 | 255 | 12.9 | 40.2 | 0.00 | 0.00 | 0.00 | 10 | 1016.5 |
| 20260903212136 | 30 | 147 | 11.3 | 40.2 | 0.00 | 0.00 | 0.00 | 8 | 1016.4 |
| 20260903210625 | 30 | 352 | 8.0 | 22.5 | 0.00 | 0.00 | 0.00 | 11 | 1016.4 |
| 20260903210119 | 30 | 279 | 8.0 | 30.6 | 0.00 | 0.00 | 0.00 | 11 | 1016.2 |
| 20260903205107 | 29 | 231 | 14.5 | 30.6 | 0.00 | 0.00 | 0.00 | 12 | 1016.5 |
| 20260903204601 | 29 | 172 | 14.5 | 41.8 | 0.00 | 0.00 | 0.00 | 12 | 1016.4 |
| 20260903204055 | 29 | 240 | 14.5 | 41.8 | 0.00 | 0.00 | 0.00 | 13 | 1016.5 |
| 20260903203549 | 30 | 202 | 11.3 | 32.2 | 0.00 | 0.00 | 0.00 | 12 | 1016.6 |
| 20260903202537 | 30 | 179 | 11.3 | 29.0 | 0.00 | 0.00 | 0.00 | 12 | 1016.5 |
| 20260903202030 | 30 | 96 | 9.7 | 25.7 | 0.00 | 0.00 | 0.00 | 11 | 1016.5 |
| 20260903201017 | 30 | 209 | 11.3 | 35.4 | 0.00 | 0.00 | 0.00 | 9 | 1016.6 |
| 20260903200511 | 30 | 153 | 9.7 | 29.0 | 0.00 | 0.00 | 0.00 | 8 | 1016.7 |
| 20260903200005 | 30 | 146 | 8.0 | 25.7 | 0.00 | 0.00 | 0.00 | 8 | 1016.7 |
| 20260903194954 | 30 | 261 | 11.3 | 27.4 | 0.00 | 0.00 | 0.00 | 5 | 1016.9 |
| 20260903194447 | 29 | 245 | 12.9 | 27.4 | 0.00 | 0.00 | 0.00 | 5 | 1017.0 |
| 20260903193942 | 29 | 168 | 11.3 | 29.0 | 0.00 | 0.00 | 0.00 | 3 | 1016.9 |
| 20260903193435 | 29 | 252 | 9.7 | 29.0 | 0.00 | 0.00 | 0.00 | 2 | 1017.0 |
| 20260903192929 | 29 | 198 | 8.0 | 25.7 | 0.00 | 0.00 | 0.00 | 1 | 1016.9 |
| 20260903191411 | 28 | 149 | 11.3 | 29.0 | 0.00 | 0.00 | 0.00 | 2 | 1017.3 |
| 20260903190905 | 28 | 172 | 12.9 | 30.6 | 0.00 | 0.00 | 0.00 | 4 | 1017.2 |
| 20260903190358 | 28 | 211 | 12.9 | 30.6 | 0.00 | 0.00 | 0.00 | 4 | 1017.3 |
| 20260903185853 | 28 | 157 | 12.9 | 37.0 | 0.00 | 0.00 | 0.00 | 6 | 1017.5 |
| 20260903185347 | 28 | 132 | 11.3 | 37.0 | 0.00 | 0.00 | 0.00 | 6 | 1017.5 |
| 20260903184841 | 28 | 98 | 9.7 | 22.5 | 0.00 | 0.00 | 0.00 | 5 | 1017.6 |
| 20260903184335 | 28 | 150 | 9.7 | 35.4 | 0.00 | 0.00 | 0.00 | 5 | 1017.5 |
| 20260903183829 | 27 | 193 | 9.7 | 35.4 | 0.00 | 0.00 | 0.00 | 8 | 1017.6 |
| 20260903183323 | 27 | 166 | 8.0 | 27.4 | 0.00 | 0.00 | 0.00 | 7 | 1017.6 |
| 20260903182817 | 27 | 107 | 9.7 | 25.7 | 0.00 | 0.00 | 0.00 | 8 | 1017.6 |
| 20260903182311 | 27 | 153 | 9.7 | 30.6 | 0.00 | 0.00 | 0.00 | 9 | 1017.8 |
| 20260903181808 | 27 | 154 | 8.0 | 30.6 | 0.00 | 0.00 | 0.00 | 10 | 1017.7 |
| 20260903181259 | 27 | 89 | 9.7 | 27.4 | 0.00 | 0.00 | 0.00 | 10 | 1017.8 |
| 20260903180753 | 27 | 129 | 9.7 | 27.4 | 0.00 | 0.00 | 0.00 | 9 | 1017.7 |
| 20260903175741 | 27 | 252 | 9.7 | 25.7 | 0.00 | 0.00 | 0.00 | 10 | 1017.8 |
| 20260903174730 | 27 | 200 | 9.7 | 24.1 | 0.00 | 0.00 | 0.00 | 10 | 1017.8 |
| 20260903174223 | 26 | 209 | 11.3 | 24.1 | 0.00 | 0.00 | 0.00 | 10 | 1017.8 |
| 20260903173717 | 26 | 96 | 9.7 | 22.5 | 0.00 | 0.00 | 0.00 | 10 | 1017.8 |
| 20260903173211 | 26 | 82 | 8.0 | 22.5 | 0.00 | 0.00 | 0.00 | 9 | 1017.8 |
| 20260903172705 | 26 | 208 | 11.3 | 29.0 | 0.00 | 0.00 | 0.00 | 10 | 1018.0 |
| 20260903172159 | 26 | 53 | 11.3 | 29.0 | 0.00 | 0.00 | 0.00 | 9 | 1018.0 |
| 20260903171653 | 26 | 145 | 11.3 | 27.4 | 0.00 | 0.00 | 0.00 | 9 | 1018.0 |
| 20260903170641 | 26 | 114 | 8.0 | 27.4 | 0.00 | 0.00 | 0.00 | 9 | 1017.8 |
| 20260903170135 | 26 | 169 | 9.7 | 22.5 | 0.00 | 0.00 | 0.00 | 9 | 1017.8 |
| 20260903165629 | 26 | 165 | 11.3 | 24.1 | 0.00 | 0.00 | 0.00 | 9 | 1017.8 |
| 20260903165123 | 26 | 122 | 9.7 | 27.4 | 0.00 | 0.00 | 0.00 | 10 | 1017.8 |
| 20260903164111 | 26 | 101 | 9.7 | 27.4 | 0.00 | 0.00 | 0.00 | 10 | 1017.8 |
| 20260903163605 | 25 | 258 | 11.3 | 24.1 | 0.00 | 0.00 | 0.00 | 10 | 1017.8 |
| 20260903162553 | 25 | 148 | 11.3 | 27.4 | 0.00 | 0.00 | 0.00 | 10 | 1017.8 |
| 20260903161541 | 25 | 160 | 11.3 | 32.2 | 0.00 | 0.00 | 0.00 | 10 | 1018.0 |
| 20260903161035 | 25 | 120 | 8.0 | 32.2 | 0.00 | 0.00 | 0.00 | 10 | 1017.8 |
| 20260903160528 | 25 | 178 | 6.4 | 19.3 | 0.00 | 0.00 | 0.00 | 10 | 1018.0 |
| 20260903160023 | 25 | 203 | 8.0 | 29.0 | 0.00 | 0.00 | 0.00 | 10 | 1017.8 |
| 20260903155517 | 25 | 353 | 9.7 | 29.0 | 0.00 | 0.00 | 0.00 | 10 | 1017.8 |
| 20260903155011 | 24 | 119 | 8.0 | 20.9 | 0.00 | 0.00 | 0.00 | 12 | 1017.7 |
| 20260903154508 | 24 | 87 | 9.7 | 29.0 | 0.00 | 0.00 | 0.00 | 12 | 1017.7 |
| 20260903153508 | 23 | 145 | 8.0 | 27.4 | 0.00 | 0.00 | 0.00 | 12 | 1017.7 |
| 20260903153008 | 23 | 251 | 6.4 | 22.5 | 0.00 | 0.00 | 0.00 | 13 | 1017.7 |
| 20260903152508 | 23 | 323 | 4.8 | 25.7 | 0.00 | 0.00 | 0.00 | 13 | 1017.7 |
| 20260903152010 | 23 | 47 | 6.4 | 25.7 | 0.00 | 0.00 | 0.00 | 13 | 1017.8 |
| 20260903151506 | 23 | 95 | 4.8 | 20.9 | 0.00 | 0.00 | 0.00 | 12 | 1017.7 |
| 20260903151007 | 23 | 294 | 3.2 | 20.9 | 0.00 | 0.00 | 0.00 | 12 | 1017.8 |
| 20260903150507 | 23 | 130 | 3.2 | 12.9 | 0.00 | 0.00 | 0.00 | 11 | 1018.0 |
| 20260903150008 | 22 | 349 | 3.2 | 12.9 | 0.00 | 0.00 | 0.00 | 11 | 1017.8 |
| 20260903144505 | 22 | 225 | 6.4 | 20.9 | 0.00 | 0.00 | 0.00 | 10 | 1018.0 |
| 20260903144002 | 22 | 120 | 6.4 | 19.3 | 0.00 | 0.00 | 0.00 | 11 | 1017.8 |
| 20260903143502 | 22 | 0.0 | 0.0 | 0.00 | 0.00 | 0.00 | 11 | 1017.7 | |
| 20260903143005 | 22 | 0.0 | 0.0 | 0.00 | 0.00 | 0.00 | 10 | 1017.5 |